Sturgis, MI

10:51 PM EDT on April 29, 2017 (GMT -0400)
Kirsch Municipal

Weather History for KIRS - October, 2012

Change the Weather History Date:

Friday, October 12, 2012

  Actual Average (KHAI) Record (KHAI)
Temperature  
Mean Temperature 43 °F -  
Max Temperature 51 °F 63 °F 81 °F (1962)
Min Temperature 35 °F 40 °F 24 °F (1957)
Degree Days  
Heating Degree Days 22    
Moisture  
Dew Point 31 °F    
Average Humidity 68    
Maximum Humidity 100    
Minimum Humidity 33    
Precipitation  
Precipitation 0.00 in - - ()
Sea Level Pressure  
Sea Level Pressure 30.35 in    
Wind  
Wind Speed 6 mph (NE)    
Max Wind Speed 12 mph    
Max Gust Speed 20 mph    
Visibility 10 miles    
Events Rain    
Averages and records for this station are not official NWS values.
T = Trace of Precipitation, MM = Missing Value Source: NWS Daily Summary

Daily Weather History Graph

Daily Weather History Graph

Search for Another Location

Airport or City:

Trip Planner

Search our weather history database for the weather conditions in past years. The results will help you decide how hot, cold, wet, or windy it might be!

Date:

Astronomy

Oct. 12, 2012 Rise Set
Actual Time 7:51 AM EDT 7:04 PM EDT
Civil Twilight 7:23 AM EDT 7:32 PM EDT
Nautical Twilight 6:50 AM EDT 8:04 PM EDT
Astronomical Twilight 6:18 AM EDT 8:36 PM EDT
Moon 4:30 AM EDT (10/12) 5:15 PM EDT (10/12)
Length of Visible Light 12h 09m
Length of Day
11h 13m
Waning Crescent, 11% of the Moon is Illuminated
Oct 12
Waning Crescent
Oct 15
New
Oct 21
First Quarter
Oct 29
Full
Nov 6
Last Quarter

Hourly Weather History & Observations

Time (EDT) Temp. Windchill Dew Point Humidity Pressure Visibility Wind Dir Wind Speed Gust Speed Precip Events Conditions
12:15 AM 48.2 °F - 39.2 °F 71% 30.19 in 10.0 mi North 8.1 mph - N/A   Overcast
12:35 AM 46.4 °F 42.4 °F 37.4 °F 71% 30.20 in 10.0 mi North 8.1 mph - N/A   Overcast
12:55 AM 46.4 °F 42.4 °F 39.2 °F 76% 30.21 in 10.0 mi North 8.1 mph - N/A   Overcast
1:15 AM 46.4 °F 41.5 °F 37.4 °F 71% 30.21 in 10.0 mi NNE 10.4 mph - N/A   Overcast
1:35 AM 44.6 °F 39.7 °F 37.4 °F 76% 30.23 in 10.0 mi North 9.2 mph - N/A   Overcast
1:55 AM 44.6 °F 40.2 °F 35.6 °F 71% 30.23 in 10.0 mi North 8.1 mph - N/A   Overcast
2:15 AM 44.6 °F 42.2 °F 37.4 °F 76% 30.24 in 10.0 mi North 4.6 mph - N/A   Light Drizzle
2:35 AM 42.8 °F 41.1 °F 39.2 °F 87% 30.24 in 10.0 mi NNE 3.5 mph - N/A   Overcast
2:55 AM 42.8 °F 41.1 °F 39.2 °F 87% 30.25 in 10.0 mi North 3.5 mph - N/A   Overcast
3:15 AM 42.8 °F 38.6 °F 39.2 °F 87% 30.26 in 10.0 mi North 6.9 mph - N/A Rain Light Rain
3:35 AM 42.8 °F 38.0 °F 39.2 °F 87% 30.26 in 7.0 mi NNE 8.1 mph - N/A Rain Light Rain
3:55 AM 41.0 °F 35.2 °F 39.2 °F 93% 30.27 in 7.0 mi North 9.2 mph - N/A Rain Light Rain
4:15 AM 39.2 °F 35.0 °F 37.4 °F 93% 30.28 in 10.0 mi NNE 5.8 mph - N/A Rain Light Rain
4:35 AM 39.2 °F - 37.4 °F 93% 30.28 in 10.0 mi Calm Calm - N/A Rain Light Rain
4:55 AM 39.2 °F - 37.4 °F 93% 30.29 in 10.0 mi Calm Calm - N/A   Overcast
5:15 AM 39.2 °F - 37.4 °F 93% 30.30 in 10.0 mi Calm Calm - N/A   Overcast
5:35 AM 39.2 °F - 37.4 °F 93% 30.30 in 10.0 mi Calm Calm - N/A   Overcast
5:54 AM 39.2 °F - 37.4 °F 93% 30.31 in 10.0 mi Calm Calm - N/A   Mostly Cloudy
6:15 AM 37.4 °F 34.9 °F 35.6 °F 93% 30.32 in 10.0 mi North 3.5 mph - N/A   Scattered Clouds
6:54 AM 35.6 °F 32.8 °F 35.6 °F 100% 30.34 in 10.0 mi NNE 3.5 mph - N/A   Clear
7:15 AM 35.6 °F 29.9 °F 33.8 °F 93% 30.35 in 10.0 mi NNE 6.9 mph - N/A   Clear
7:35 AM 35.6 °F 30.7 °F 33.8 °F 93% 30.36 in 10.0 mi NNE 5.8 mph - N/A   Clear
7:54 AM 35.6 °F 31.7 °F 33.8 °F 93% 30.36 in 10.0 mi NNE 4.6 mph - N/A   Clear
8:15 AM 35.6 °F 31.7 °F 33.8 °F 93% 30.37 in 10.0 mi NNE 4.6 mph - N/A   Clear
8:35 AM 35.6 °F 32.8 °F 33.8 °F 93% 30.38 in 10.0 mi NNE 3.5 mph - N/A   Clear
8:54 AM 37.4 °F 32.8 °F 33.8 °F 87% 30.39 in 10.0 mi NNE 5.8 mph - N/A   Clear
9:15 AM 37.4 °F 33.8 °F 35.6 °F 93% 30.40 in 10.0 mi NE 4.6 mph - N/A   Clear
9:35 AM 39.2 °F 35.0 °F 35.6 °F 87% 30.41 in 10.0 mi NE 5.8 mph - N/A   Clear
9:55 AM 39.2 °F 32.5 °F 33.8 °F 81% 30.41 in 10.0 mi NE 10.4 mph - N/A   Clear
10:15 AM 41.0 °F 35.2 °F 33.8 °F 76% 30.43 in 10.0 mi NE 9.2 mph - N/A   Clear
10:34 AM 42.8 °F 37.5 °F 33.8 °F 70% 30.44 in 10.0 mi NE 9.2 mph - N/A   Clear
10:55 AM 42.8 °F 36.6 °F 32.0 °F 66% 30.43 in 10.0 mi ENE 11.5 mph 19.6 mph N/A   Clear
11:15 AM 44.6 °F 40.2 °F 32.0 °F 61% 30.43 in 10.0 mi NE 8.1 mph - N/A   Clear
11:35 AM 44.6 °F 39.2 °F 30.2 °F 57% 30.43 in 10.0 mi ENE 10.4 mph - N/A   Clear
11:54 AM 44.6 °F 39.7 °F 30.2 °F 57% 30.44 in 10.0 mi ENE 9.2 mph - N/A   Clear
12:15 PM 46.4 °F 45.2 °F 28.4 °F 50% 30.44 in 10.0 mi NE 3.5 mph - N/A   Clear
12:34 PM 46.4 °F 44.3 °F 28.4 °F 50% 30.43 in 10.0 mi NE 4.6 mph - N/A   Clear
12:55 PM 46.4 °F 43.5 °F 28.4 °F 50% 30.43 in 10.0 mi NE 5.8 mph - N/A   Clear
1:14 PM 48.2 °F - 28.4 °F 46% 30.43 in 10.0 mi East 6.9 mph - N/A   Clear
1:35 PM 48.2 °F - 28.4 °F 46% 30.42 in 10.0 mi NE 4.6 mph - N/A   Clear
1:55 PM 48.2 °F - 26.6 °F 43% 30.42 in 10.0 mi ENE 3.5 mph - N/A   Clear
2:35 PM 50.0 °F - 26.6 °F 40% 30.41 in 10.0 mi NE 6.9 mph - N/A   Clear
2:54 PM 50.0 °F - 26.6 °F 40% 30.40 in 10.0 mi NE 5.8 mph - N/A   Clear
3:15 PM 50.0 °F - 24.8 °F 37% 30.39 in 10.0 mi East 3.5 mph - N/A   Clear
3:35 PM 50.0 °F - 26.6 °F 40% 30.39 in 10.0 mi Calm Calm - N/A   Clear
3:55 PM 51.8 °F - 24.8 °F 35% 30.39 in 10.0 mi East 4.6 mph - N/A   Clear
4:15 PM 51.8 °F - 24.8 °F 35% 30.39 in 10.0 mi SSE 3.5 mph - N/A   Clear
4:34 PM 51.8 °F - 24.8 °F 35% 30.38 in 10.0 mi East 5.8 mph - N/A   Clear
4:55 PM 51.8 °F - 23.0 °F 33% 30.38 in 10.0 mi Calm Calm - N/A   Clear
5:15 PM 51.8 °F - 24.8 °F 35% 30.38 in 10.0 mi Calm Calm - N/A   Clear
5:34 PM 51.8 °F - 24.8 °F 35% 30.37 in 10.0 mi Calm Calm - N/A   Clear
6:15 PM 50.0 °F - 24.8 °F 37% 30.37 in 10.0 mi East 3.5 mph - N/A   Clear
6:54 PM 48.2 °F - 23.0 °F 37% 30.36 in 10.0 mi ESE 3.5 mph - N/A   Clear
7:15 PM 46.4 °F - 24.8 °F 43% 30.36 in 10.0 mi Calm Calm - N/A   Clear
7:35 PM 39.2 °F - 30.2 °F 70% 30.36 in 10.0 mi Calm Calm - N/A   Clear
7:54 PM 39.2 °F - 28.4 °F 65% 30.36 in 10.0 mi Calm Calm - N/A   Clear
8:15 PM 39.2 °F - 26.6 °F 61% 30.36 in 10.0 mi Calm Calm - N/A   Clear
8:34 PM 37.4 °F - 28.4 °F 70% 30.36 in 10.0 mi Calm Calm - N/A   Clear
8:55 PM 35.6 °F - 28.4 °F 75% 30.37 in 10.0 mi Calm Calm - N/A   Clear
9:15 PM 35.6 °F - 30.2 °F 81% 30.37 in 10.0 mi Calm Calm - N/A   Clear
9:34 PM 37.4 °F 33.8 °F 26.6 °F 65% 30.36 in 10.0 mi SE 4.6 mph - N/A   Clear
10:15 PM 39.2 °F 37.0 °F 26.6 °F 61% 30.36 in 10.0 mi SE 3.5 mph - N/A   Clear
10:34 PM 39.2 °F 37.0 °F 26.6 °F 61% 30.37 in 10.0 mi SSE 3.5 mph - N/A   Clear
10:55 PM 39.2 °F 37.0 °F 26.6 °F 61% 30.37 in 10.0 mi SSE 3.5 mph - N/A   Clear
11:15 PM 39.2 °F 33.6 °F 26.6 °F 61% 30.35 in 10.0 mi ESE 8.1 mph - N/A   Clear
11:34 PM 39.2 °F 34.2 °F 26.6 °F 61% 30.35 in 10.0 mi SE 6.9 mph - N/A   Clear
11:55 PM 39.2 °F 34.2 °F 26.6 °F 61% 30.35 in 10.0 mi SSE 6.9 mph - N/A   Clear